Showing default

PHISAT 2, 60470

Orbit data source: Space-Track

PHISAT 2, 60470 is a UK payload satellite in SSO that was launched on Fri, 16 Aug 2024 UTC via an FALCON 9 launch vehicle from the Air Force Western Test Range (AFWTR). Payload-class satellites include a variety of spacecraft equipped with specific instruments for various scientific and technological missions. These include communications satellites like Starlink; space stations such as the ISS; scientific satellites like the Hubble; Earth observation satellites from companies like Planet Labs, Umbra, and HawkEye 360; GPS; miniature CubeSats for education and research; and military/defense satellites.

Loading next visibility...
Identifier
60470, 2024-149C
Orbit
SSO
Country
Flag of UKUK
Related business
Manufacturer
Open Cosmos
Mission
Operational Civil Technology
Bus & Motor
CUBESAT 6U, Unknown motor
Mass
9 kg wet, 9 kg dry
Launch date (UTC)
2024-08-16 (1 year ago)
Launch vehicle
FALCON 9
Launch site
Air Force Western Test Range (AFWTR)
Object type
Payload
Rocket body
Debris
Shape & HBR
Box + 2 Pan, 0.7 m
Radar Cross Section
0.143 m², Medium (>0.1 m² and < 1m²)

Expand to show TLE details & history
Last TLE update: 18 hours ago

TLE from 18 hours ago
0 PHISAT 2
1 60470U 24149C   25286.89670898  .00010234  00000-0  39788-3 0  9993
2 60470  97.4001   2.9563 0002644  65.4966 294.6548 15.26228418 64363
Epoch: 2025-10-13T21:31Z
TLE epoch observation values (Epoch: 2025-10-13T21:31:15.655Z)
Latitude
-0.00005°
Longitude
17.44817°
Altitude
489.441 km
Speed
7.621 km/s
True Right ascension
00h 11m 49s
True Declination
0° 00' 00"
Sunlit
Object was in full shadow at epoch
Visualization orbit readout
Latitude
Unknown
Longitude
Unknown
Altitude
Unknown
Speed
Unknown
Apparent Right ascension
Unknown
Apparent Declination
Unknown
Sunlit
N/A
Visualization observer readout
Local Sidereal Time
10:28:44
Azimuth
Unknown
Elevation
Unknown
Doppler factor
Unknown
Orbital elements
Apogee altitude
485.871 km
Perigee altitude
482.242 km
Semi-major axis
6,862.193 km
Eccentricity
0.00026
Inclination
97.4001°
RAAN
2.9563°
Arg. of periapsis
65.4966°
True anomaly
294.62726°
Mean anomaly
294.6548°
Eccentric anomaly
294.64103°
Mean motion
3.81811 °/min
Orbital period
94.29 mins
BSTAR
0.00039788
Loading maneuver chart data...
Computing Atmospheric mass density...
Loading historical data...
Loading historical data...
Loading historical data...
Loading historical data...
Loading historical data...
Loading historical data...
Loading historical data...

Documentation

Showing up to 5 results
|